Overview Statistics Trail Chart Weather Telemetry Raw packets
 

This is the latest recevied weather packets stored in our database for station/object N0OQA. If no packets are shown the sender has not sent any weather packets the latest 10 day(s).

<< 50 51 52 53 54 55 56 >>
Time Temp. Humidity Pressure Rain* Wind** Luminosity Snow
1787946305 27.22° C 42% 1021.1 hPa 0 mm - - -
1787946004 27.22° C 42% 1021.2 hPa 0 mm - - -
1787945103 27.22° C 42% 1021.4 hPa 0 mm - - -
1787944802 27.22° C 42% 1021.4 hPa 0 mm - - -
1787944513 27.78° C 40% 1021.3 hPa 0 mm - - -
1787944201 27.78° C 39% 1021.2 hPa 0 mm - - -
1787943901 27.78° C 35% 1021.2 hPa 0 mm - - -
1787943599 27.78° C 36% 1021.3 hPa 0 mm - - -
1787943298 28.33° C 36% 1021.4 hPa 0 mm - - -
1787942697 27.78° C 41% 1021.5 hPa 0 mm - - -
1787942397 27.78° C 42% 1021.6 hPa 0 mm - - -
1787942097 27.22° C 43% 1021.6 hPa 0 mm - - -
1787941797 27.22° C 42% 1021.7 hPa 0 mm - - -
1787941496 27.22° C 42% 1021.9 hPa 0 mm - - -
1787941196 26.67° C 42% 1022.1 hPa 0 mm - - -
1787940295 26.67° C 42% 1022.1 hPa 0 mm - - -
1787939995 27.22° C 43% 1022.1 hPa 0 mm - - -
1787939695 27.22° C 42% 1022.2 hPa 0 mm - - -
1787939094 26.67° C 44% 1022.2 hPa 0 mm - - -
1787938794 26.67° C 44% 1022.2 hPa 0 mm - - -
1787938494 26.11° C 45% 1022.3 hPa 0 mm - - -
1787938193 26.11° C 45% 1022.4 hPa 0 mm - - -
1787937893 26.67° C 46% 1022.4 hPa 0 mm - - -
1787937593 26.11° C 45% 1022.5 hPa 0 mm - - -
1787937292 26.11° C 45% 1022.6 hPa 0 mm - - -

* Rain since midnight (hover to see other rain measurements)
** Current wind speed in m/s (hover to see current wind gust speed)